Location: A�t �Alizem
(31.2076°N, 8.7872°W)
Time: 18:39:49
(UTC+00:00)

deb Explorer IX - Visible Passes

Search period start: 22 June 2021 00:00
Search period end: 02 July 2021 00:00
Orbit: 542 x 1233 km, 38.9° (Epoch: 21 June)

Date Brightness Start Highest point End Pass type
(mag) Time Alt. Az. Time Alt. Az. Time Alt. Az.
22 Jun ? 00:35:00 18° ENE 00:35:00 18° ENE 00:36:38 10° ENE visible
22 Jun ? 02:17:41 28° NW 02:19:59 40° N 02:26:08 10° ENE visible
22 Jun ? 04:03:27 10° WNW 04:09:28 51° NNE 04:16:37 10° E visible
23 Jun ? 00:32:25 19° NE 00:32:25 19° NE 00:34:08 10° ENE visible
23 Jun ? 02:15:06 25° NW 02:17:43 39° N 02:23:45 10° ENE visible
23 Jun ? 04:01:05 10° WNW 04:07:06 57° NNE 04:14:17 10° E visible
24 Jun ? 00:29:55 19° NE 00:29:55 19° NE 00:31:39 10° ENE visible
24 Jun ? 02:12:36 23° NW 02:15:27 38° N 02:21:26 10° ENE visible
24 Jun ? 03:58:44 10° WNW 04:04:43 65° NNE 04:11:56 10° ESE visible
25 Jun ? 00:27:32 18° NE 00:27:32 18° NE 00:29:11 10° ENE visible
25 Jun ? 02:10:14 22° NW 02:13:11 39° N 02:19:08 10° ENE visible
25 Jun ? 03:56:21 10° WNW 04:02:18 75° NNE 04:09:30 10° ESE visible
25 Jun ? 20:42:54 10° S 20:44:22 14° SSE 20:44:22 14° SSE visible
26 Jun ? 00:25:23 16° NE 00:25:23 16° NE 00:26:44 10° ENE visible
26 Jun ? 02:08:06 24° NW 02:10:53 41° NNE 02:16:50 10° E visible
26 Jun ? 03:53:58 10° WNW 03:59:52 88° NNE 04:07:01 10° ESE visible
26 Jun ? 20:39:38 10° SSW 20:42:47 22° SE 20:44:46 16° ESE visible
26 Jun ? 22:26:28 10° WSW 22:27:39 19° WSW 22:27:39 19° WSW visible
27 Jun ? 00:23:39 13° ENE 00:23:39 13° ENE 00:24:21 10° ENE visible
27 Jun ? 02:06:25 30° NW 02:08:35 45° NNE 02:14:33 10° E visible
27 Jun ? 03:51:37 10° WNW 03:57:24 76° SSW 04:04:26 10° SE visible
27 Jun ? 20:36:42 10° SSW 20:40:16 31° SE 20:44:00 10° E visible
27 Jun ? 22:24:13 10° W 22:27:42 50° NW 22:27:42 50° NW visible
28 Jun ? 02:05:28 47° N 02:06:14 50° NNE 02:12:15 10° E visible
28 Jun ? 03:49:18 10° WNW 03:54:56 61° SSW 04:01:46 10° SE visible
28 Jun ? 20:33:57 10° SW 20:37:48 43° SSE 20:41:48 10° ENE visible
28 Jun ? 22:22:01 10° W 22:25:59 44° NNW 22:27:02 37° NNE visible
29 Jun?00:22:30ENE00:22:30ENE00:09:48WNWvisible
29 Jun ? 02:05:23 44° ENE 02:05:23 44° ENE 02:09:54 10° E visible
29 Jun ? 03:48:16 17° W 03:52:27 48° SSW 03:58:58 10° SE visible
29 Jun ? 20:31:22 10° SW 20:35:22 62° SSE 20:39:30 10° ENE visible
29 Jun ? 22:19:51 10° W 22:23:42 37° NNW 22:25:34 25° NE visible
30 Jun ? 02:05:55 18° ESE 02:05:55 18° ESE 02:07:31 10° ESE visible
30 Jun ? 03:48:50 34° WSW 03:49:58 36° SSW 03:56:00 10° SSE visible
30 Jun ? 20:28:54 10° WSW 20:32:58 85° SSE 20:37:07 10° ENE visible
30 Jun ? 22:17:42 10° WNW 22:21:26 33° N 22:23:37 21° NE visible
01 Jul ? 03:49:31 23° S 03:49:31 23° S 03:52:52 10° SSE visible
01 Jul ? 20:26:31 10° WSW 20:30:35 72° NNW 20:34:42 10° ENE visible
01 Jul ? 22:15:33 10° WNW 22:19:11 30° N 22:21:21 20° NE visible
